| time (UTC) | temp F | wind direction | speed knots | gust knots | rain 1hr in | rain 24hr in | rain mn in | humidity % | barometer mb |
| 20260505031554 | 49 | 284 | 1.7 | 7.8 | 0.00 | 0.36 | 0.00 | 75 | 1006.2 |
| 20260505030048 | 50 | 234 | 3.5 | 10.4 | 0.00 | 0.36 | 0.00 | 74 | 1006.1 |
| 20260505024547 | 50 | 272 | 2.6 | 13.0 | 0.00 | 0.37 | 0.36 | 73 | 1006.0 |
| 20260505023046 | 51 | 212 | 3.5 | 8.7 | 0.00 | 0.37 | 0.36 | 72 | 1005.7 |
| 20260505021543 | 51 | 226 | 2.6 | 7.8 | 0.00 | 0.37 | 0.36 | 72 | 1005.5 |
| 20260505020042 | 51 | 246 | 0.9 | 7.8 | 0.00 | 0.37 | 0.36 | 72 | 1005.3 |
| 20260505014542 | 51 | 210 | 3.5 | 11.3 | 0.00 | 0.39 | 0.36 | 72 | 1005.3 |
| 20260505013057 | 51 | 226 | 0.9 | 6.1 | 0.00 | 0.39 | 0.36 | 72 | 1005.2 |
| 20260505011539 | 51 | 243 | 0.9 | 7.0 | 0.00 | 0.39 | 0.36 | 71 | 1005.1 |
| 20260505010037 | 50 | 200 | 0.9 | 3.5 | 0.00 | 0.39 | 0.36 | 70 | 1005.1 |
| 20260505004537 | 50 | 246 | 1.7 | 7.8 | 0.00 | 0.47 | 0.36 | 69 | 1005.0 |
| 20260505003035 | 50 | 189 | 3.5 | 10.4 | 0.00 | 0.47 | 0.36 | 70 | 1004.8 |
| 20260505001534 | 50 | 225 | 1.7 | 9.6 | 0.00 | 0.47 | 0.36 | 71 | 1004.6 |
| 20260505000049 | 50 | 305 | 3.5 | 7.8 | 0.00 | 0.47 | 0.36 | 72 | 1004.6 |
| 20260504234533 | 50 | 310 | 2.6 | 11.3 | 0.00 | 0.54 | 0.36 | 72 | 1004.4 |
| 20260504233030 | 51 | 291 | 8.7 | 15.6 | 0.00 | 0.54 | 0.36 | 65 | 1004.0 |
| 20260504231527 | 53 | 182 | 3.5 | 12.2 | 0.00 | 0.54 | 0.36 | 50 | 1004.0 |
| 20260504230023 | 53 | 225 | 6.1 | 12.2 | 0.00 | 0.54 | 0.36 | 52 | 1003.4 |
| 20260504224521 | 53 | 156 | 3.5 | 8.7 | 0.00 | 0.73 | 0.36 | 54 | 1003.1 |
| 20260504223021 | 54 | 239 | 1.7 | 7.0 | 0.00 | 0.73 | 0.36 | 54 | 1003.0 |
| 20260504221520 | 55 | 233 | 2.6 | 9.6 | 0.00 | 0.73 | 0.36 | 52 | 1003.0 |
| 20260504220029 | 56 | 238 | 3.5 | 10.4 | 0.00 | 0.73 | 0.36 | 51 | 1002.9 |
| 20260504214519 | 55 | 303 | 2.6 | 14.8 | 0.00 | 0.88 | 0.36 | 52 | 1002.9 |
| 20260504213009 | 56 | 273 | 3.5 | 13.9 | 0.00 | 0.88 | 0.36 | 53 | 1002.7 |
| 20260504211510 | 55 | 261 | 5.2 | 14.8 | 0.00 | 0.88 | 0.36 | 54 | 1002.6 |
| 20260504210005 | 55 | 271 | 7.0 | 16.5 | 0.00 | 0.88 | 0.36 | 54 | 1002.4 |
| 20260504204503 | 55 | 294 | 7.8 | 18.2 | 0.00 | 0.94 | 0.36 | 54 | 1002.1 |
| 20260504203002 | 55 | 294 | 11.3 | 20.0 | 0.00 | 0.94 | 0.36 | 53 | 1002.0 |
| 20260504201621 | 55 | 294 | 7.8 | 19.1 | 0.00 | 0.94 | 0.36 | 54 | 1002.0 |
| 20260504200100 | 55 | 305 | 7.8 | 20.0 | 0.00 | 0.94 | 0.36 | 56 | 1001.7 |
| 20260504194602 | 54 | 237 | 7.8 | 18.2 | 0.00 | 0.96 | 0.36 | 58 | 1001.3 |
| 20260504193059 | 54 | 315 | 8.7 | 30.4 | 0.00 | 0.96 | 0.36 | 56 | 1001.1 |
| 20260504191600 | 55 | 318 | 6.1 | 19.1 | 0.00 | 0.96 | 0.36 | 55 | 1000.8 |
| 20260504190112 | 54 | 286 | 8.7 | 21.7 | 0.00 | 0.96 | 0.36 | 56 | 1000.6 |
| 20260504184603 | 53 | 246 | 8.7 | 24.3 | 0.00 | 0.97 | 0.36 | 59 | 1000.4 |
| 20260504183046 | 53 | 313 | 7.8 | 26.9 | 0.00 | 0.97 | 0.36 | 62 | 1000.2 |
| 20260504181547 | 52 | 298 | 8.7 | 25.2 | 0.00 | 0.97 | 0.36 | 64 | 999.9 |
| 20260504180042 | 52 | 281 | 8.7 | 27.8 | 0.00 | 0.97 | 0.36 | 68 | 999.9 |
| 20260504174537 | 51 | 275 | 6.1 | 22.6 | 0.00 | 0.97 | 0.36 | 73 | 999.6 |
| 20260504173034 | 50 | 285 | 10.4 | 27.8 | 0.00 | 0.97 | 0.36 | 73 | 999.6 |
| 20260504171533 | 50 | 297 | 7.8 | 23.5 | 0.00 | 0.97 | 0.36 | 78 | 999.1 |
| 20260504140107 | 41 | 287 | 5.2 | 18.2 | 0.06 | 0.95 | 0.35 | 96 | 995.7 |
| 20260504100113 | 36 | 280 | 5.2 | 22.6 | 0.02 | 0.77 | 0.17 | 96 | 986.1 |
| 20260504081536 | 38 | 270 | 6.1 | 21.7 | 0.02 | 0.73 | 0.13 | 97 | 980.2 |
| 20260504050001 | 39 | 214 | 0.0 | 3.5 | 0.02 | 0.65 | 0.04 | 98 | 974.6 |
| 20260504044601 | 39 | 169 | 0.0 | 1.7 | 0.02 | 0.64 | 0.03 | 98 | 974.4 |
| 20260504043115 | 39 | 169 | 0.0 | 4.3 | 0.02 | 0.63 | 0.02 | 98 | 974.0 |
| 20260504041557 | 39 | 118 | 3.5 | 7.0 | 0.02 | 0.63 | 0.02 | 98 | 974.1 |
| 20260504040055 | 39 | 103 | 3.5 | 13.9 | 0.02 | 0.62 | 0.02 | 97 | 974.4 |
| 20260504034553 | 39 | 132 | 4.3 | 16.5 | 0.02 | 0.61 | 0.01 | 97 | 975.0 |
| 20260504033054 | 39 | 120 | 7.0 | 16.5 | 0.02 | 0.61 | 0.01 | 97 | 975.7 |